,,,PA_Meas_PMT16A,,PR_Meas_QMR101_102,,RH_Meas_QMH101,,SR_Meas_QMS101,,TA_Meas_QMH101,,GenWind,,GenWind,
date,time,status,PA,status,PR,status,RH,status,SR,status,TA,status,DirAvg,status,SpdAvg,
2009-06-20, 00:00:04,VALID,1005.46,VALID,0,VALID,92.935,VALID,0,VALID,24.3636,VALID,356,VALID,0.383203,
2009-06-20, 00:01:04,VALID,1005.47,VALID,0,VALID,92.9961,VALID,0,VALID,24.3654,VALID,356,VALID,0.06875,
2009-06-20, 00:02:04,VALID,1005.45,VALID,0,VALID,93.1105,VALID,0.100563,VALID,24.383,VALID,356,VALID,0,
2009-06-20, 00:03:04,VALID,1005.41,VALID,0,VALID,93.141,VALID,0,VALID,24.3849,VALID,356,VALID,0,
2009-06-20, 00:04:04,VALID,1005.38,VALID,0,VALID,93.1868,VALID,0.100563,VALID,24.3617,VALID,355,VALID,0,
2009-06-20, 00:05:04,VALID,1005.38,VALID,0,VALID,93.1944,VALID,0,VALID,24.383,VALID,356,VALID,0,
2009-06-20, 00:06:04,VALID,1005.4,VALID,0,VALID,93.2325,VALID,0,VALID,24.422,VALID,356,VALID,0,
2009-06-20, 00:07:04,VALID,1005.39,VALID,0,VALID,93.1944,VALID,0.100563,VALID,24.4025,VALID,356,VALID,0,
2009-06-20, 00:08:04,VALID,1005.39,VALID,0,VALID,93.1715,VALID,0,VALID,24.422,VALID,356,VALID,0.0191406,
2009-06-20, 00:09:04,VALID,1005.41,VALID,0,VALID,93.1105,VALID,0,VALID,24.4025,VALID,356,VALID,0.36875,
2009-06-20, 00:10:04,VALID,1005.4,VALID,0,VALID,93.08,VALID,0,VALID,24.4025,VALID,355,VALID,0,
2009-06-20, 00:11:04,VALID,1005.43,VALID,0,VALID,93.1486,VALID,0,VALID,24.4238,VALID,356,VALID,0,
2009-06-20, 00:12:04,VALID,1005.38,VALID,0,VALID,93.1639,VALID,0.100563,VALID,24.422,VALID,356,VALID,0.00273437,
2009-06-20, 00:13:04,VALID,1005.36,VALID,0,VALID,93.1181,VALID,0,VALID,24.422,VALID,356,VALID,0.0378906,
2009-06-20, 00:14:04,VALID,1005.36,VALID,0,VALID,93.1257,VALID,0,VALID,24.4414,VALID,355,VALID,0,
2009-06-20, 00:15:04,VALID,1005.33,VALID,0,VALID,93.0876,VALID,0,VALID,24.4628,VALID,356,VALID,0,
2009-06-20, 00:16:04,VALID,1005.3,VALID,0,VALID,93.1105,VALID,0,VALID,24.4414,VALID,356,VALID,0,
2009-06-20, 00:17:04,VALID,1005.3,VALID,0,VALID,93.1181,VALID,0,VALID,24.4822,VALID,355,VALID,0.0757812,
2009-06-20, 00:18:04,VALID,1005.24,VALID,0,VALID,92.9808,VALID,0,VALID,24.4998,VALID,356,VALID,0,
2009-06-20, 00:19:04,VALID,1005.25,VALID,0,VALID,92.8435,VALID,0.100563,VALID,24.5212,VALID,355,VALID,0,
2009-06-20, 00:20:04,VALID,1005.26,VALID,0,VALID,92.7214,VALID,0,VALID,24.4804,VALID,356,VALID,0,
2009-06-20, 00:21:04,VALID,1005.24,VALID,0,VALID,92.7062,VALID,0,VALID,24.4609,VALID,356,VALID,0,
2009-06-20, 00:22:04,VALID,1005.27,VALID,0,VALID,92.6756,VALID,0,VALID,24.4025,VALID,356,VALID,0.473828,
2009-06-20, 00:23:04,VALID,1005.25,VALID,0,VALID,92.7138,VALID,0.100563,VALID,24.4043,VALID,356,VALID,0.476563,
2009-06-20, 00:24:04,VALID,1005.24,VALID,0,VALID,92.7824,VALID,0.100563,VALID,24.3441,VALID,356,VALID,0.455469,
2009-06-20, 00:25:04,VALID,1005.22,VALID,0,VALID,92.9198,VALID,0,VALID,24.3246,VALID,356,VALID,0.399609,
2009-06-20, 00:26:04,VALID,1005.23,VALID,0,VALID,93.0266,VALID,0,VALID,24.3246,VALID,356,VALID,0.319922,
2009-06-20, 00:27:04,VALID,1005.24,VALID,0,VALID,93.1105,VALID,0,VALID,24.307,VALID,355,VALID,0.119922,
2009-06-20, 00:28:04,VALID,1005.24,VALID,0,VALID,93.1639,VALID,0,VALID,24.307,VALID,356,VALID,0.107422,
2009-06-20, 00:29:04,VALID,1005.26,VALID,0,VALID,93.2325,VALID,0,VALID,24.2894,VALID,356,VALID,0,
2009-06-20, 00:30:04,VALID,1005.26,VALID,0,VALID,93.3317,VALID,0,VALID,24.2875,VALID,356,VALID,0,
2009-06-20, 00:31:04,VALID,1005.29,VALID,0,VALID,93.4156,VALID,0,VALID,24.2875,VALID,358,VALID,0.457031,
2009-06-20, 00:32:04,VALID,1005.27,VALID,0,VALID,93.5072,VALID,0,VALID,24.2875,VALID,358,VALID,0.25625,
2009-06-20, 00:33:04,VALID,1005.25,VALID,0,VALID,93.5453,VALID,0,VALID,24.2875,VALID,358,VALID,0.225,
2009-06-20, 00:34:04,VALID,1005.22,VALID,0,VALID,93.5911,VALID,0,VALID,24.3088,VALID,358,VALID,0.00585938,
2009-06-20, 00:35:04,VALID,1005.18,VALID,0,VALID,93.6292,VALID,0,VALID,24.307,VALID,358,VALID,0,
2009-06-20, 00:36:04,VALID,1005.18,VALID,0,VALID,93.6674,VALID,0,VALID,24.307,VALID,358,VALID,0,
2009-06-20, 00:37:04,VALID,1005.11,VALID,0,VALID,93.675,VALID,0,VALID,24.307,VALID,358,VALID,0,
2009-06-20, 00:38:04,VALID,1005.09,VALID,0,VALID,93.6674,VALID,0,VALID,24.3459,VALID,358,VALID,0,
2009-06-20, 00:39:04,VALID,1005.05,VALID,0,VALID,93.6521,VALID,0,VALID,24.3673,VALID,358,VALID,0,
2009-06-20, 00:40:04,VALID,1005.02,VALID,0,VALID,93.6445,VALID,0,VALID,24.3265,VALID,358,VALID,0,
2009-06-20, 00:41:04,VALID,1005.01,VALID,0,VALID,93.6369,VALID,0,VALID,24.307,VALID,358,VALID,0,
2009-06-20, 00:42:04,VALID,1004.96,VALID,0,VALID,93.6826,VALID,0,VALID,24.307,VALID,358,VALID,0,
2009-06-20, 00:43:04,VALID,1004.92,VALID,0,VALID,93.7208,VALID,0,VALID,24.307,VALID,358,VALID,0,
2009-06-20, 00:44:04,VALID,1004.91,VALID,0,VALID,93.6979,VALID,0,VALID,24.2875,VALID,358,VALID,0,
2009-06-20, 00:45:04,VALID,1004.89,VALID,0,VALID,93.6903,VALID,0,VALID,24.2875,VALID,358,VALID,0,
2009-06-20, 00:46:04,VALID,1004.9,VALID,0,VALID,93.7284,VALID,0,VALID,24.2875,VALID,358,VALID,0,
2009-06-20, 00:47:04,VALID,1004.84,VALID,0,VALID,93.7818,VALID,0,VALID,24.307,VALID,358,VALID,0,
2009-06-20, 00:48:04,VALID,1004.78,VALID,0,VALID,93.7742,VALID,0,VALID,24.307,VALID,358,VALID,0,
2009-06-20, 00:49:04,VALID,1004.76,VALID,0,VALID,93.7895,VALID,0,VALID,24.3265,VALID,358,VALID,0,
2009-06-20, 00:50:04,VALID,1004.71,VALID,0,VALID,93.7284,VALID,0,VALID,24.3265,VALID,358,VALID,0,
2009-06-20, 00:51:04,VALID,1004.67,VALID,0,VALID,93.6445,VALID,0,VALID,24.3265,VALID,358,VALID,0,
2009-06-20, 00:52:04,VALID,1004.67,VALID,0,VALID,93.553,VALID,0,VALID,24.3459,VALID,358,VALID,0,
2009-06-20, 00:53:04,VALID,1004.63,VALID,0,VALID,93.5148,VALID,0,VALID,24.3265,VALID,358,VALID,0,
2009-06-20, 00:54:04,VALID,1004.63,VALID,0,VALID,93.5224,VALID,0,VALID,24.3441,VALID,358,VALID,0.003125,
2009-06-20, 00:55:04,VALID,1004.6,VALID,0,VALID,93.469,VALID,0,VALID,24.3654,VALID,358,VALID,0.448047,
2009-06-20, 00:56:04,VALID,1004.6,VALID,0,VALID,93.4004,VALID,0,VALID,24.4043,VALID,358,VALID,0.161328,
2009-06-20, 00:57:04,VALID,1004.59,VALID,0,VALID,93.2936,VALID,0,VALID,24.4238,VALID,356,VALID,0.0964844,
2009-06-20, 00:58:04,VALID,1004.58,VALID,0,VALID,93.1563,VALID,0,VALID,24.4451,VALID,356,VALID,0,
2009-06-20, 00:59:04,VALID,1004.55,VALID,0,VALID,93.0723,VALID,0,VALID,24.4414,VALID,356,VALID,0.000390625,
2009-06-20, 01:00:04,VALID,1004.5,VALID,0,VALID,93.0113,VALID,0,VALID,24.5017,VALID,356,VALID,0.304688,
2009-06-20, 01:01:04,VALID,1004.47,VALID,0,VALID,92.8892,VALID,0,VALID,24.5212,VALID,356,VALID,0.510156,
2009-06-20, 01:02:04,VALID,1004.43,VALID,0,VALID,92.729,VALID,0,VALID,24.5796,VALID,348,VALID,0.533203,
2009-06-20, 01:03:04,VALID,1004.41,VALID,0,VALID,92.5002,VALID,0,VALID,24.6204,VALID,344,VALID,0.435547,
2009-06-20, 01:04:04,VALID,1004.41,VALID,0,VALID,92.3018,VALID,0,VALID,24.638,VALID,342,VALID,0.580469,
2009-06-20, 01:05:04,VALID,1004.4,VALID,0,VALID,92.0577,VALID,0,VALID,24.6574,VALID,342,VALID,0.354688,
2009-06-20, 01:06:04,VALID,1004.38,VALID,0,VALID,91.8441,VALID,0,VALID,24.6983,VALID,342,VALID,0.494531,
2009-06-20, 01:07:04,VALID,1004.39,VALID,0,VALID,91.7144,VALID,0,VALID,24.6769,VALID,342,VALID,0.353516,
2009-06-20, 01:08:04,VALID,1004.35,VALID,0,VALID,91.6457,VALID,0,VALID,24.6769,VALID,342,VALID,0.391016,
2009-06-20, 01:09:04,VALID,1004.36,VALID,0,VALID,91.6229,VALID,0,VALID,24.638,VALID,342,VALID,0.291797,
2009-06-20, 01:10:04,VALID,1004.33,VALID,0,VALID,91.5923,VALID,0,VALID,24.638,VALID,341,VALID,0.368359,
2009-06-20, 01:11:04,VALID,1004.31,VALID,0,VALID,91.5695,VALID,0,VALID,24.5972,VALID,341,VALID,0.167578,
2009-06-20, 01:12:04,VALID,1004.3,VALID,0,VALID,91.5847,VALID,0,VALID,24.638,VALID,341,VALID,0.264062,
2009-06-20, 01:13:04,VALID,1004.3,VALID,0,VALID,91.6076,VALID,0,VALID,24.599,VALID,341,VALID,0.336719,
2009-06-20, 01:14:04,VALID,1004.29,VALID,0,VALID,91.6457,VALID,0,VALID,24.5796,VALID,341,VALID,0.417578,
2009-06-20, 01:15:04,VALID,1004.27,VALID,0,VALID,91.6763,VALID,0,VALID,24.5796,VALID,341,VALID,0.451172,
2009-06-20, 01:16:04,VALID,1004.28,VALID,0,VALID,91.6991,VALID,0,VALID,24.5796,VALID,341,VALID,0.482812,
2009-06-20, 01:17:04,VALID,1004.29,VALID,0,VALID,91.7144,VALID,0,VALID,24.5814,VALID,345,VALID,0.514063,
2009-06-20, 01:18:04,VALID,1004.28,VALID,0,VALID,91.7449,VALID,0,VALID,24.5406,VALID,347,VALID,0.447656,
2009-06-20, 01:19:04,VALID,1004.27,VALID,0,VALID,91.8212,VALID,0,VALID,24.5406,VALID,348,VALID,0.440234,
2009-06-20, 01:20:04,VALID,1004.24,VALID,0,VALID,91.9204,VALID,0,VALID,24.5017,VALID,349,VALID,0.355859,
2009-06-20, 01:21:04,VALID,1004.21,VALID,0,VALID,91.989,VALID,0,VALID,24.5425,VALID,348,VALID,0.243359,
2009-06-20, 01:22:04,VALID,1004.2,VALID,0,VALID,92.0043,VALID,0,VALID,24.5212,VALID,348,VALID,0.323828,
2009-06-20, 01:23:04,VALID,1004.21,VALID,0,VALID,91.9662,VALID,0,VALID,24.5017,VALID,348,VALID,0.388281,
2009-06-20, 01:24:04,VALID,1004.23,VALID,0,VALID,91.9204,VALID,0,VALID,24.5017,VALID,345,VALID,0.567578,
2009-06-20, 01:25:04,VALID,1004.18,VALID,0,VALID,91.8822,VALID,0,VALID,24.5406,VALID,348,VALID,0.513281,
2009-06-20, 01:26:04,VALID,1004.19,VALID,0,VALID,91.8212,VALID,0,VALID,24.5406,VALID,338,VALID,0.683984,
2009-06-20, 01:27:04,VALID,1004.21,VALID,0,VALID,91.722,VALID,0,VALID,24.5601,VALID,347,VALID,0.758203,
2009-06-20, 01:28:04,VALID,1004.21,VALID,0,VALID,91.5923,VALID,0,VALID,24.599,VALID,347,VALID,0.569922,
2009-06-20, 01:29:04,VALID,1004.23,VALID,0,VALID,91.4245,VALID,0,VALID,24.6185,VALID,343,VALID,0.877734,
2009-06-20, 01:30:04,VALID,1004.24,VALID,0,VALID,91.2109,VALID,0,VALID,24.6361,VALID,308,VALID,0.507813,
2009-06-20, 01:31:04,VALID,1004.23,VALID,0,VALID,91.0049,VALID,0,VALID,24.6964,VALID,349,VALID,0.655469,
2009-06-20, 01:32:04,VALID,1004.27,VALID,0,VALID,90.8218,VALID,0,VALID,24.7353,VALID,355,VALID,0.320313,
2009-06-20, 01:33:04,VALID,1004.27,VALID,0,VALID,90.6998,VALID,0,VALID,24.7353,VALID,356,VALID,0.471484,
2009-06-20, 01:34:04,VALID,1004.29,VALID,0,VALID,90.6235,VALID,0,VALID,24.7353,VALID,5,VALID,0.784375,
2009-06-20, 01:35:04,VALID,1004.27,VALID,0,VALID,90.4862,VALID,0,VALID,24.7548,VALID,326,VALID,0.436719,
2009-06-20, 01:36:04,VALID,1004.27,VALID,0,VALID,90.3183,VALID,0,VALID,24.7937,VALID,358,VALID,0.506641,
2009-06-20, 01:37:04,VALID,1004.26,VALID,0,VALID,90.0971,VALID,0,VALID,24.8327,VALID,329,VALID,0.514844,
2009-06-20, 01:38:04,VALID,1004.22,VALID,0,VALID,89.9445,VALID,0,VALID,24.8522,VALID,337,VALID,0.683594,
2009-06-20, 01:39:04,VALID,1004.2,VALID,0,VALID,89.7461,VALID,0,VALID,24.8697,VALID,327,VALID,0.590234,
2009-06-20, 01:40:04,VALID,1004.23,VALID,0,VALID,89.5707,VALID,0,VALID,24.9106,VALID,303,VALID,0.332812,
2009-06-20, 01:41:04,VALID,1004.17,VALID,0,VALID,89.5097,VALID,0,VALID,24.9087,VALID,337,VALID,0.716797,
2009-06-20, 01:42:04,VALID,1004.16,VALID,0,VALID,89.4639,VALID,0,VALID,24.9514,VALID,358,VALID,0.628125,
2009-06-20, 01:43:04,VALID,1004.14,VALID,0,VALID,89.38,VALID,0,VALID,24.93,VALID,350,VALID,0.883203,
2009-06-20, 01:44:04,VALID,1004.11,VALID,0,VALID,89.3418,VALID,0,VALID,24.93,VALID,342,VALID,0.568359,
2009-06-20, 01:45:04,VALID,1004.1,VALID,0,VALID,89.3266,VALID,0,VALID,24.9087,VALID,353,VALID,0.772266,
2009-06-20, 01:46:04,VALID,1004.06,VALID,0,VALID,89.2884,VALID,0,VALID,24.9514,VALID,347,VALID,0.655859,
2009-06-20, 01:47:04,VALID,1004.05,VALID,0,VALID,89.2884,VALID,0,VALID,24.9106,VALID,358,VALID,0.633594,
2009-06-20, 01:48:04,VALID,1004.03,VALID,0,VALID,89.3342,VALID,0,VALID,24.8911,VALID,354,VALID,0.732031,
2009-06-20, 01:49:04,VALID,1004,VALID,0,VALID,89.3876,VALID,0,VALID,24.8911,VALID,334,VALID,1.06602,
2009-06-20, 01:50:04,VALID,1004,VALID,0,VALID,89.4181,VALID,0,VALID,24.8911,VALID,356,VALID,0.434375,
2009-06-20, 01:51:04,VALID,1003.98,VALID,0,VALID,89.4257,VALID,0,VALID,24.8716,VALID,355,VALID,0.775781,
2009-06-20, 01:52:04,VALID,1003.96,VALID,0,VALID,89.5249,VALID,0,VALID,24.8716,VALID,353,VALID,0.726563,
2009-06-20, 01:53:04,VALID,1003.94,VALID,0,VALID,89.4105,VALID,0,VALID,24.8911,VALID,1,VALID,0.63125,
2009-06-20, 01:54:04,VALID,1003.93,VALID,0,VALID,89.3342,VALID,0,VALID,24.8911,VALID,27,VALID,0.335156,
2009-06-20, 01:55:04,VALID,1003.93,VALID,0,VALID,89.2732,VALID,0,VALID,24.9106,VALID,325,VALID,0.58125,
2009-06-20, 01:56:04,VALID,1003.93,VALID,0,VALID,89.2045,VALID,0,VALID,24.9087,VALID,347,VALID,0.584766,
2009-06-20, 01:57:04,VALID,1003.93,VALID,0,VALID,89.1435,VALID,0,VALID,24.93,VALID,3,VALID,0.358203,
2009-06-20, 01:58:04,VALID,1003.92,VALID,0,VALID,89.1664,VALID,0,VALID,24.93,VALID,340,VALID,0.542578,
2009-06-20, 01:59:04,VALID,1003.95,VALID,0,VALID,89.1892,VALID,0,VALID,24.8911,VALID,343,VALID,0.594922,
2009-06-20, 02:00:04,VALID,1003.89,VALID,0,VALID,89.2274,VALID,0,VALID,24.8911,VALID,333,VALID,0.497656,
2009-06-20, 02:01:04,VALID,1003.92,VALID,0,VALID,89.2732,VALID,0,VALID,24.8716,VALID,345,VALID,0.486719,
2009-06-20, 02:02:04,VALID,1003.89,VALID,0,VALID,89.3952,VALID,0,VALID,24.8522,VALID,334,VALID,0.54375,
2009-06-20, 02:03:04,VALID,1003.9,VALID,0,VALID,89.4486,VALID,0,VALID,24.8327,VALID,333,VALID,0.191406,
2009-06-20, 02:04:04,VALID,1003.91,VALID,0,VALID,89.5173,VALID,0,VALID,24.8132,VALID,1,VALID,0.516797,
2009-06-20, 02:05:04,VALID,1003.93,VALID,0,VALID,89.6241,VALID,0,VALID,24.7937,VALID,360,VALID,0.507813,
2009-06-20, 02:06:04,VALID,1003.94,VALID,0,VALID,89.7004,VALID,0,VALID,24.7956,VALID,347,VALID,0.353125,
2009-06-20, 02:07:04,VALID,1003.93,VALID,0,VALID,89.769,VALID,0,VALID,24.7548,VALID,347,VALID,0.348828,
2009-06-20, 02:08:04,VALID,1003.96,VALID,0,VALID,89.8835,VALID,0,VALID,24.7567,VALID,344,VALID,0.410156,
2009-06-20, 02:09:04,VALID,1003.97,VALID,0,VALID,89.9292,VALID,0,VALID,24.6964,VALID,344,VALID,0.152344,
2009-06-20, 02:10:04,VALID,1003.97,VALID,0,VALID,90.0589,VALID,0,VALID,24.6769,VALID,344,VALID,0.226953,
2009-06-20, 02:11:04,VALID,1003.94,VALID,0,VALID,90.1429,VALID,0,VALID,24.6788,VALID,344,VALID,0.309766,
2009-06-20, 02:12:04,VALID,1003.95,VALID,0,VALID,90.2802,VALID,0,VALID,24.6185,VALID,344,VALID,0.207422,
2009-06-20, 02:13:04,VALID,1003.91,VALID,0,VALID,90.3412,VALID,0,VALID,24.599,VALID,344,VALID,0.25625,
2009-06-20, 02:14:04,VALID,1003.91,VALID,0,VALID,90.4633,VALID,0,VALID,24.5601,VALID,344,VALID,0.300781,
2009-06-20, 02:15:04,VALID,1003.89,VALID,0,VALID,90.6311,VALID,0,VALID,24.5212,VALID,344,VALID,0.221484,
2009-06-20, 02:16:04,VALID,1003.87,VALID,0,VALID,90.7608,VALID,0,VALID,24.523,VALID,344,VALID,0.264453,
2009-06-20, 02:17:04,VALID,1003.88,VALID,0,VALID,90.8218,VALID,0,VALID,24.4628,VALID,344,VALID,0.231641,
2009-06-20, 02:18:04,VALID,1003.85,VALID,0,VALID,90.9744,VALID,0,VALID,24.4433,VALID,344,VALID,0,
2009-06-20, 02:19:04,VALID,1003.89,VALID,0,VALID,91.2033,VALID,0,VALID,24.4238,VALID,344,VALID,0.266797,
2009-06-20, 02:20:04,VALID,1003.93,VALID,0,VALID,91.3177,VALID,0,VALID,24.4257,VALID,344,VALID,0.126172,
2009-06-20, 02:21:04,VALID,1003.92,VALID,0,VALID,91.4245,VALID,0,VALID,24.4043,VALID,344,VALID,0.160156,
2009-06-20, 02:22:04,VALID,1003.93,VALID,0,VALID,91.4932,VALID,0,VALID,24.3849,VALID,344,VALID,0.383594,
2009-06-20, 02:23:04,VALID,1003.95,VALID,0,VALID,91.5923,VALID,0,VALID,24.4043,VALID,344,VALID,0.307422,
2009-06-20, 02:24:04,VALID,1003.98,VALID,0,VALID,91.6229,VALID,0,VALID,24.3849,VALID,344,VALID,0,
2009-06-20, 02:25:04,VALID,1004.01,VALID,0,VALID,91.6229,VALID,0,VALID,24.3246,VALID,344,VALID,0,
2009-06-20, 02:26:04,VALID,1004.03,VALID,0,VALID,91.7373,VALID,0,VALID,24.3673,VALID,344,VALID,0,
2009-06-20, 02:27:04,VALID,1004.03,VALID,0,VALID,91.7907,VALID,0.100563,VALID,24.3441,VALID,344,VALID,0,
2009-06-20, 02:28:04,VALID,1004.08,VALID,0,VALID,91.8059,VALID,0,VALID,24.3246,VALID,344,VALID,0,
2009-06-20, 02:29:04,VALID,1004.1,VALID,0,VALID,91.8059,VALID,0,VALID,24.3052,VALID,344,VALID,0,
2009-06-20, 02:30:04,VALID,1004.14,VALID,0,VALID,91.867,VALID,0,VALID,24.307,VALID,344,VALID,0,
2009-06-20, 02:31:04,VALID,1004.12,VALID,0,VALID,91.9662,VALID,0.100563,VALID,24.2857,VALID,344,VALID,0,
2009-06-20, 02:32:04,VALID,1004.12,VALID,0,VALID,92.0119,VALID,0,VALID,24.307,VALID,344,VALID,0,
2009-06-20, 02:33:04,VALID,1004.08,VALID,0,VALID,92.0806,VALID,0.100563,VALID,24.3052,VALID,344,VALID,0,
2009-06-20, 02:34:04,VALID,1004.08,VALID,0,VALID,92.1111,VALID,0,VALID,24.307,VALID,344,VALID,0.167187,
2009-06-20, 02:35:04,VALID,1004.05,VALID,0,VALID,92.1645,VALID,0.100563,VALID,24.307,VALID,344,VALID,0,
2009-06-20, 02:36:04,VALID,1004.04,VALID,0,VALID,92.1492,VALID,0,VALID,24.2662,VALID,344,VALID,0.433594,
2009-06-20, 02:37:04,VALID,1004.08,VALID,0,VALID,92.1569,VALID,0,VALID,24.2468,VALID,344,VALID,0.457031,
2009-06-20, 02:38:04,VALID,1004.05,VALID,0,VALID,91.989,VALID,0.100563,VALID,24.2078,VALID,344,VALID,0.360938,
2009-06-20, 02:39:04,VALID,1004.07,VALID,0,VALID,92.0806,VALID,0,VALID,24.1494,VALID,344,VALID,0.532422,
2009-06-20, 02:40:04,VALID,1004.12,VALID,0,VALID,92.2484,VALID,0,VALID,24.1281,VALID,344,VALID,0.295703,
2009-06-20, 02:41:04,VALID,1004.15,VALID,0,VALID,92.3934,VALID,0.100563,VALID,24.13,VALID,344,VALID,0.176563,
2009-06-20, 02:42:04,VALID,1004.17,VALID,0,VALID,92.5536,VALID,0,VALID,24.1123,VALID,344,VALID,0.0101562,
2009-06-20, 02:43:04,VALID,1004.21,VALID,0,VALID,92.6909,VALID,0,VALID,24.1105,VALID,273,VALID,0.476172,
2009-06-20, 02:44:04,VALID,1004.28,VALID,0,VALID,92.9274,VALID,0,VALID,24.13,VALID,274,VALID,0.363672,
2009-06-20, 02:45:04,VALID,1004.33,VALID,0,VALID,93.1181,VALID,0,VALID,24.2097,VALID,293,VALID,0.967969,
2009-06-20, 02:46:04,VALID,1004.37,VALID,0,VALID,93.1639,VALID,0,VALID,24.307,VALID,295,VALID,1.5707,
2009-06-20, 02:47:04,VALID,1004.35,VALID,0,VALID,92.8664,VALID,0,VALID,24.3636,VALID,282,VALID,1.09375,
2009-06-20, 02:48:04,VALID,1004.39,VALID,0,VALID,92.4925,VALID,0.100563,VALID,24.4609,VALID,288,VALID,1.33203,
2009-06-20, 02:49:04,VALID,1004.38,VALID,0,VALID,91.9967,VALID,0.100563,VALID,24.4998,VALID,286,VALID,1.57656,
2009-06-20, 02:50:04,VALID,1004.37,VALID,0,VALID,91.7525,VALID,0,VALID,24.5582,VALID,6,VALID,0.874219,
2009-06-20, 02:51:04,VALID,1004.34,VALID,0,VALID,91.5771,VALID,0.100563,VALID,24.6185,VALID,335,VALID,0.885156,
2009-06-20, 02:52:04,VALID,1004.36,VALID,0,VALID,91.4626,VALID,0,VALID,24.6166,VALID,310,VALID,0.378906,
2009-06-20, 02:53:04,VALID,1004.38,VALID,0,VALID,91.2414,VALID,0,VALID,24.6166,VALID,294,VALID,0.757031,
2009-06-20, 02:54:04,VALID,1004.42,VALID,0,VALID,91.2109,VALID,0.100563,VALID,24.6556,VALID,242,VALID,0.419922,
2009-06-20, 02:55:04,VALID,1004.43,VALID,0,VALID,91.2109,VALID,0.100563,VALID,24.6964,VALID,286,VALID,0.853906,
2009-06-20, 02:56:04,VALID,1004.41,VALID,0,VALID,91.2033,VALID,0.100563,VALID,24.6537,VALID,270,VALID,0.812109,
2009-06-20, 02:57:04,VALID,1004.43,VALID,0,VALID,91.2567,VALID,0,VALID,24.714,VALID,355,VALID,0.924219,
2009-06-20, 02:58:04,VALID,1004.44,VALID,0,VALID,91.3024,VALID,0.100563,VALID,24.7335,VALID,283,VALID,1.15391,
2009-06-20, 02:59:04,VALID,1004.48,VALID,0,VALID,91.3024,VALID,0.100563,VALID,24.7529,VALID,292,VALID,0.248047,
2009-06-20, 03:00:04,VALID,1004.48,VALID,0,VALID,91.3635,VALID,0,VALID,24.7724,VALID,301,VALID,0.992969,
2009-06-20, 03:01:04,VALID,1004.51,VALID,0,VALID,91.4245,VALID,0,VALID,24.7919,VALID,260,VALID,0.339063,
2009-06-20, 03:02:04,VALID,1004.5,VALID,0,VALID,91.5237,VALID,0.100563,VALID,24.79,VALID,286,VALID,1.11523,
2009-06-20, 03:03:04,VALID,1004.51,VALID,0,VALID,91.6381,VALID,0,VALID,24.8113,VALID,293,VALID,1.56523,
2009-06-20, 03:04:04,VALID,1004.52,VALID,0,VALID,91.6915,VALID,0,VALID,24.8327,VALID,316,VALID,0.558984,
2009-06-20, 03:05:04,VALID,1004.51,VALID,0,VALID,91.7678,VALID,0.100563,VALID,24.8503,VALID,302,VALID,1.23203,
2009-06-20, 03:06:04,VALID,1004.52,VALID,0,VALID,91.8441,VALID,0,VALID,24.8503,VALID,340,VALID,0.339844,
2009-06-20, 03:07:04,VALID,1004.51,VALID,0,VALID,91.867,VALID,0.100563,VALID,24.8308,VALID,289,VALID,0.976953,
2009-06-20, 03:08:04,VALID,1004.52,VALID,0,VALID,91.8517,VALID,0.100563,VALID,24.8697,VALID,340,VALID,0.553906,
2009-06-20, 03:09:04,VALID,1004.52,VALID,0,VALID,91.8975,VALID,0.100563,VALID,24.8697,VALID,314,VALID,0.426172,
2009-06-20, 03:10:04,VALID,1004.52,VALID,0,VALID,91.8975,VALID,0,VALID,24.8503,VALID,355,VALID,0.886328,
2009-06-20, 03:11:04,VALID,1004.52,VALID,0,VALID,91.928,VALID,0,VALID,24.8503,VALID,350,VALID,0.491016,
2009-06-20, 03:12:04,VALID,1004.53,VALID,0,VALID,91.9738,VALID,0,VALID,24.8503,VALID,335,VALID,0.246484,
2009-06-20, 03:13:04,VALID,1004.53,VALID,0,VALID,91.9814,VALID,0,VALID,24.8522,VALID,350,VALID,0.842969,
2009-06-20, 03:14:05,VALID,1004.53,VALID,0,VALID,92.0196,VALID,0,VALID,24.8522,VALID,349,VALID,0.635156,
2009-06-20, 03:15:05,VALID,1004.53,VALID,0,VALID,92.0653,VALID,0,VALID,24.8522,VALID,346,VALID,0.383984,
2009-06-20, 03:16:05,VALID,1004.53,VALID,0,VALID,92.1264,VALID,0,VALID,24.8327,VALID,287,VALID,0.287891,
2009-06-20, 03:17:05,VALID,1004.53,VALID,0,VALID,92.1721,VALID,0,VALID,24.8327,VALID,287,VALID,0.194922,
2009-06-20, 03:18:05,VALID,1004.55,VALID,0,VALID,92.1874,VALID,0,VALID,24.8132,VALID,287,VALID,0.165234,
2009-06-20, 03:19:05,VALID,1004.51,VALID,0,VALID,92.2561,VALID,0,VALID,24.8132,VALID,287,VALID,0.272656,
2009-06-20, 03:20:05,VALID,1004.5,VALID,0,VALID,92.2713,VALID,0,VALID,24.8132,VALID,287,VALID,0.446094,
2009-06-20, 03:21:05,VALID,1004.5,VALID,0,VALID,92.3171,VALID,0,VALID,24.8132,VALID,286,VALID,0.144141,
2009-06-20, 03:22:05,VALID,1004.5,VALID,0,VALID,92.34,VALID,0,VALID,24.7937,VALID,286,VALID,0.15625,
2009-06-20, 03:23:05,VALID,1004.49,VALID,0,VALID,92.3781,VALID,0,VALID,24.7937,VALID,320,VALID,0.400781,
2009-06-20, 03:24:05,VALID,1004.52,VALID,0,VALID,92.3934,VALID,0,VALID,24.7937,VALID,320,VALID,0.00195313,
2009-06-20, 03:25:05,VALID,1004.5,VALID,0,VALID,92.3781,VALID,0,VALID,24.7529,VALID,8,VALID,0.305859,
2009-06-20, 03:26:05,VALID,1004.48,VALID,0,VALID,92.3552,VALID,0,VALID,24.7743,VALID,293,VALID,0.780078,
2009-06-20, 03:27:05,VALID,1004.49,VALID,0,VALID,92.3934,VALID,0,VALID,24.7548,VALID,296,VALID,0.292969,
2009-06-20, 03:28:05,VALID,1004.5,VALID,0,VALID,92.3781,VALID,0,VALID,24.7353,VALID,5,VALID,0.338281,
2009-06-20, 03:29:05,VALID,1004.51,VALID,0,VALID,92.3781,VALID,0,VALID,24.7159,VALID,6,VALID,0.541406,
2009-06-20, 03:30:05,VALID,1004.51,VALID,0,VALID,92.3857,VALID,0,VALID,24.675,VALID,330,VALID,0.736328,
2009-06-20, 03:31:05,VALID,1004.52,VALID,0,VALID,92.3552,VALID,0,VALID,24.6556,VALID,15,VALID,0.6125,
2009-06-20, 03:32:05,VALID,1004.52,VALID,0,VALID,92.3934,VALID,0,VALID,24.6788,VALID,290,VALID,0.474609,
2009-06-20, 03:33:05,VALID,1004.54,VALID,0,VALID,92.3857,VALID,0,VALID,24.638,VALID,299,VALID,1.09844,
2009-06-20, 03:34:05,VALID,1004.52,VALID,0,VALID,92.3781,VALID,0,VALID,24.638,VALID,357,VALID,0.923047,
2009-06-20, 03:35:05,VALID,1004.51,VALID,0,VALID,92.3781,VALID,0,VALID,24.6185,VALID,341,VALID,0.860547,
2009-06-20, 03:36:05,VALID,1004.52,VALID,0,VALID,92.3476,VALID,0,VALID,24.6185,VALID,279,VALID,0.625,
2009-06-20, 03:37:05,VALID,1004.5,VALID,0,VALID,92.3476,VALID,0,VALID,24.6398,VALID,276,VALID,0.288281,
2009-06-20, 03:38:05,VALID,1004.5,VALID,0,VALID,92.34,VALID,0,VALID,24.6185,VALID,335,VALID,0.609375,
2009-06-20, 03:39:05,VALID,1004.5,VALID,0,VALID,92.2942,VALID,0,VALID,24.599,VALID,352,VALID,0.460547,
2009-06-20, 03:40:05,VALID,1004.49,VALID,0,VALID,92.2561,VALID,0,VALID,24.599,VALID,22,VALID,0.497656,
2009-06-20, 03:41:05,VALID,1004.46,VALID,0,VALID,92.195,VALID,0,VALID,24.5796,VALID,334,VALID,1.37969,
2009-06-20, 03:42:05,VALID,1004.44,VALID,0,VALID,92.1111,VALID,0,VALID,24.5796,VALID,314,VALID,0.408203,
2009-06-20, 03:43:05,VALID,1004.42,VALID,0,VALID,92.0577,VALID,0,VALID,24.5796,VALID,312,VALID,0.457422,
2009-06-20, 03:44:05,VALID,1004.37,VALID,0,VALID,92.0043,VALID,0,VALID,24.5796,VALID,307,VALID,0.189844,
2009-06-20, 03:45:05,VALID,1004.37,VALID,0,VALID,91.8594,VALID,0,VALID,24.5796,VALID,281,VALID,1.14844,
2009-06-20, 03:46:05,VALID,1004.35,VALID,0,VALID,91.7678,VALID,0,VALID,24.599,VALID,296,VALID,0.107031,